Portada
METAR-TAF:

METAR-TAF

Aeroports :

Municipal

Tunica, Mississipí, Estats Units d'Amèrica

latitud: 34-41-06N, longitud: 090-20-52W, altitud: 59 m

Observació

L'informe es va fer fa 14 minuts, a les 16:55 UTC
Vent calma
Temperatura 25°C
Humitat 41%
Pressió 1023 hPa
Visibilitat: 16.1 km
Cel clar

METAR: KUTA 011655Z AUTO 00000KT 10SM CLR 25/11 A3022 RMK AO2 TSNO

Hora: 12:09 (17:09 UTC)


TAF: manca

Observacions i pronòstics meteorològics de més de 4000 aeroports (METAR i TAF).

Les estacions disponibles són els punts grocs i vermells al mapa.

Posi el ratolí al punt desitjat per veure el nom de l'estació.

Feu clic per veure les observacions i els pronòstics meteorològics.

Per canviar el mapa: feu clic els botons verds amb una creu de color negre per apropar; al botó verd amb un guió per allunyar la imatge; o en les fletxes verdes per a mapes adjacents.


METAR-TAF: